AirNav  
 
 1290 users online  

1GE5 Flying D Airport
Concord, Georgia, USA


FAA INFORMATION EFFECTIVE 07 DECEMBER 2017

Location

FAA Identifier: 1GE5
Lat/Long: 33-06-04.4500N / 084-23-36.7200W
33-06.074167N / 084-23.612000W
33.1012361 / -84.3935333
(estimated)
Elevation: 838 ft. / 255 m (estimated)
Variation: 03W (1995)
From city: 3 miles NE of CONCORD, GA
Time zone: UTC -5 (UTC -4 during Daylight Saving Time)
Zip code: 30206

Airport Operations

Airport use: Private use. Permission required prior to landing
Activation date: 07/1999
Control tower: no
ARTCC: ATLANTA CENTER
FSS: MACON FLIGHT SERVICE STATION
Attendance: UNATNDD
Wind indicator: yes
Segmented circle: no

Airport Communications

WX AWOS-3 at 6A2 (10 nm NE): 119.750 (770-227-3934)
WX AWOS-3 at OPN (11 nm SE): 133.975 (706-646-4123)
WX AWOS-3 at HMP (18 nm N): 124.825 (770-707-1719)
WX ASOS at FFC (18 nm NW): 118.525 (770-487-1610)

Nearby radio navigation aids

VOR radial/distance  VOR name  Freq  Var
ATLr181/31.7ATLANTA VORTAC116.9005W

 
NDB name  Hdg/Dist  Freq  Var  ID
PECAT164/12.931605WFFC ..-. ..-. -.-.
COWETA COUNTY123/18.623403WEQQ . --.- --.-
PINE MOUNTAIN060/28.727203WPIM .--. .. --

Airport Services

Runway Information

Runway 18/36

Dimensions: 1000 x 40 ft. / 305 x 12 m
Surface: turf, in good condition
RUNWAY 18  RUNWAY 36
Traffic pattern: leftright

Airport Ownership and Management from official FAA records

Ownership: Privately-owned
Owner: DAVID NEYHART
P.O. BOX 996
ZEBULON, GA 30295
Phone (770) 567-9928
Manager: DAVID NEYHART
P.O. BOX 996
ZEBULON, GA 30295
Phone (770) 567-9928

Airport Operational Statistics

Aircraft based on the field: 2
Single engine airplanes: 1
Ultralights: 1
    

Instrument Procedures

There are no published instrument procedures at 1GE5.

Some nearby airports with instrument procedures:

6A2 - Griffin-Spalding County Airport (10 nm NE)
KOPN - Thomaston-Upson County Airport (11 nm SE)
KHMP - Henry County Airport (18 nm N)
KFFC - Atlanta Regional Airport-Falcon Field (18 nm NW)
KCCO - Newnan Coweta County Airport (23 nm NW)
 
Loc | Ops | Rwys | IFR | FBO | Links
Com | Nav | Svcs | Stats | Notes


 
Aerial photo
No photo
 
Airport distance calculator
Flying to Flying D Airport? Find the distance to fly.

From to 1GE5

Sunrise and sunset
Times for 12-Dec-2017
 Local
(UTC-5)
 Zulu
(UTC)
Morning civil twilight07:0512:05
Sunrise07:3212:32
Sunset17:3022:30
Evening civil twilight17:5822:58

Current date and time
Zulu (UTC)  12-Dec-2017 22:23:36
Local (UTC-5)  12-Dec-2017 17:23:36
 
METAR
K6A2 
10nm NE 
122155Z AUTO 30010G14KT 10SM CLR 10/00 A2993 RMK AO2
KOPN 
11nm SE 
122155Z AUTO 31010KT 10SM CLR 10/M03 A2994 RMK AO2
KFFC 
17nm NW 
122153Z AUTO 30013G19KT 10SM CLR 09/M02 A2995 RMK AO2 SLP144 T00941017
KHMP 
18nm N 
122155Z AUTO 30008KT 280V340 10SM CLR 09/M01 A2994 RMK AO2 T00941008
TAF
KATL 
32nm N 
121948Z 1220/1324 31016G30KT P6SM BKN035 FM122100 32015G28KT P6SM SCT030 FM130200 31012G18KT P6SM SKC FM130600 31010KT P6SM SKC FM131500 29006KT P6SM FEW250 FM131900 23010KT P6SM FEW250
NOTAMs
Click for the latest NOTAMs
NOTAMs are issued by the DoD/FAA and will open in a separate window not controlled by AirNav.

 

 
 

Would you like to see your business listed on this page?

 If your business provides an interesting product or service to pilots, flight crews, aircraft, or users of the Flying D Airport, you should consider listing it here.  To start the listing process, click on the button below
 
Add a business
 

Other Pages about Flying D Airport

Update a link
 
Copyright © AirNav, LLC. All rights reserved. Privacy Policy  Contact